AAL3004 KMIA-KCLT

Flight info

Callsign AAL3004
Flight time 1h 40m
Altitude 37000
Route ALTNN2 DUCEN Q87 VIYAP/N0470F390 CHECR STOCR4
Aircraft B77W/H-SDE1E2E3FGHIJ2J3J4J5M1RWXY/LB1D1

Departure

Time 2026-05-06 12:24
Airport Miami International Airport (KMIA)

Arrival

Time 2026-05-06 14:04
Airport Charlotte Douglas International Airport (KCLT)
Time Latitude Longitude Altitude Speed Heading
2026-05-06 11:45 25.79800 -80.27656 21 ft 0 kts 177°
2026-05-06 12:12 25.79823 -80.27657 23 ft 4 kts 178°
2026-05-06 12:12 25.79850 -80.27658 24 ft 4 kts 177°
2026-05-06 12:12 25.79868 -80.27661 24 ft 2 kts 150°
2026-05-06 12:12 25.79879 -80.27671 25 ft 2 kts 120°
2026-05-06 12:13 25.79887 -80.27692 26 ft 3 kts 100°
2026-05-06 12:13 25.79888 -80.27708 25 ft 2 kts 93°
2026-05-06 12:13 25.79889 -80.27720 25 ft 2 kts 89°
2026-05-06 12:13 25.79888 -80.27727 24 ft 0 kts 87°
2026-05-06 12:16 25.79889 -80.27706 25 ft 4 kts 87°
2026-05-06 12:16 25.79892 -80.27656 27 ft 9 kts 87°
2026-05-06 12:17 25.79903 -80.27570 24 ft 12 kts 60°
2026-05-06 12:17 25.79966 -80.27557 26 ft 9 kts 322°
2026-05-06 12:17 25.80012 -80.27608 23 ft 10 kts 332°
2026-05-06 12:17 25.80057 -80.27668 24 ft 11 kts 283°
2026-05-06 12:18 25.80059 -80.27759 21 ft 13 kts 269°
2026-05-06 12:18 25.80056 -80.27869 18 ft 16 kts 269°
2026-05-06 12:18 25.80049 -80.27999 16 ft 18 kts 266°
2026-05-06 12:18 25.80042 -80.28137 18 ft 18 kts 267°
2026-05-06 12:19 25.80037 -80.28275 20 ft 18 kts 268°
2026-05-06 12:19 25.80032 -80.28430 20 ft 22 kts 267°
2026-05-06 12:19 25.80024 -80.28607 25 ft 23 kts 267°
2026-05-06 12:19 25.80017 -80.28785 27 ft 23 kts 267°
2026-05-06 12:20 25.80009 -80.28961 29 ft 23 kts 266°
2026-05-06 12:20 25.80001 -80.29137 26 ft 22 kts 267°
2026-05-06 12:20 25.79994 -80.29311 24 ft 23 kts 267°
2026-05-06 12:20 25.79987 -80.29499 19 ft 26 kts 268°
2026-05-06 12:21 25.79979 -80.29701 19 ft 26 kts 266°
2026-05-06 12:21 25.79969 -80.29889 17 ft 22 kts 268°
2026-05-06 12:21 25.79966 -80.30035 17 ft 16 kts 275°
2026-05-06 12:21 25.79979 -80.30079 20 ft 0 kts 297°
2026-05-06 12:22 25.79979 -80.30080 20 ft 1 kts 297°
2026-05-06 12:22 25.80005 -80.30113 19 ft 9 kts 327°
2026-05-06 12:22 25.80061 -80.30103 19 ft 9 kts 50°
2026-05-06 12:22 25.80074 -80.30050 18 ft 1 kts 84°
2026-05-06 12:23 25.80075 -80.30039 18 ft 0 kts 84°
2026-05-06 12:23 25.80080 -80.29968 17 ft 40 kts 87°
2026-05-06 12:23 25.80106 -80.29305 23 ft 131 kts 88°
2026-05-06 12:23 25.80150 -80.28044 264 ft 179 kts 88°
2026-05-06 12:24 25.80209 -80.26696 1363 ft 172 kts 86°
2026-05-06 12:24 25.80310 -80.25355 2384 ft 177 kts 86°
2026-05-06 12:24 25.80380 -80.23973 3316 ft 182 kts 87°
2026-05-06 12:24 25.80436 -80.22542 4023 ft 200 kts 88°
2026-05-06 12:25 25.80495 -80.20861 4372 ft 236 kts 88°
2026-05-06 12:25 25.80820 -80.18997 4889 ft 256 kts 66°
2026-05-06 12:25 25.81868 -80.17371 5805 ft 264 kts 42°
2026-05-06 12:25 25.83409 -80.16193 6741 ft 274 kts 23°
2026-05-06 12:26 25.85276 -80.15780 7685 ft 274 kts
2026-05-06 12:26 25.87183 -80.15748 8703 ft 278 kts
2026-05-06 12:26 25.89123 -80.15729 9872 ft 276 kts 355°
2026-05-06 12:26 25.91026 -80.16201 10663 ft 288 kts 342°
2026-05-06 12:27 25.93002 -80.16933 10979 ft 320 kts 342°
2026-05-06 12:27 25.95220 -80.17738 11250 ft 346 kts 342°
2026-05-06 12:27 25.97537 -80.18558 11643 ft 351 kts 342°
2026-05-06 12:27 25.99924 -80.19256 12182 ft 355 kts 350°
2026-05-06 12:28 26.02363 -80.19567 13333 ft 358 kts 354°
2026-05-06 12:28 26.04867 -80.19767 14412 ft 361 kts 355°
2026-05-06 12:28 26.07387 -80.19962 15452 ft 364 kts 354°
2026-05-06 12:28 26.09928 -80.20180 16481 ft 367 kts 354°
2026-05-06 12:29 26.12491 -80.20425 17496 ft 371 kts 354°
2026-05-06 12:29 26.15096 -80.20689 18327 ft 377 kts 353°
2026-05-06 12:29 26.17682 -80.20956 18993 ft 379 kts 353°
2026-05-06 12:29 26.20329 -80.21229 19666 ft 383 kts 353°
2026-05-06 12:30 26.23012 -80.21478 20373 ft 388 kts 354°
2026-05-06 12:30 26.25722 -80.21716 21093 ft 392 kts 353°
2026-05-06 12:30 26.28423 -80.21952 21811 ft 397 kts 353°
2026-05-06 12:30 26.31211 -80.22198 22501 ft 403 kts 353°
2026-05-06 12:31 26.34033 -80.22450 23199 ft 408 kts 353°
2026-05-06 12:31 26.36878 -80.22705 23868 ft 413 kts 353°
2026-05-06 12:31 26.39756 -80.22975 24471 ft 416 kts 352°
2026-05-06 12:31 26.42646 -80.23272 25085 ft 418 kts 352°
2026-05-06 12:32 26.45514 -80.23574 25692 ft 420 kts 352°
2026-05-06 12:32 26.48468 -80.23883 26337 ft 421 kts 352°
2026-05-06 12:32 26.51349 -80.24182 26980 ft 422 kts 352°
2026-05-06 12:32 26.54275 -80.24483 27642 ft 422 kts 352°
2026-05-06 12:33 26.57211 -80.24803 28304 ft 423 kts 350°
2026-05-06 12:33 26.60136 -80.25261 28869 ft 425 kts 348°
2026-05-06 12:33 26.63080 -80.25791 29460 ft 428 kts 348°
2026-05-06 12:33 26.65995 -80.26308 30048 ft 431 kts 348°
2026-05-06 12:34 26.68977 -80.26814 30521 ft 434 kts 348°
2026-05-06 12:34 26.71952 -80.27462 30926 ft 435 kts 341°
2026-05-06 12:34 26.74812 -80.28588 31368 ft 436 kts 337°
2026-05-06 12:34 26.77634 -80.29845 31796 ft 438 kts 336°
2026-05-06 12:35 26.80469 -80.31115 32224 ft 439 kts 336°
2026-05-06 12:35 26.83329 -80.32364 32674 ft 441 kts 337°
2026-05-06 12:35 26.86197 -80.33584 33119 ft 442 kts 337°
2026-05-06 12:35 26.89086 -80.34795 33584 ft 442 kts 338°
2026-05-06 12:36 26.91972 -80.36000 34043 ft 442 kts 338°
2026-05-06 12:36 26.94810 -80.37183 34441 ft 438 kts 338°
2026-05-06 12:36 26.97691 -80.38353 34848 ft 434 kts 338°
2026-05-06 12:36 27.00491 -80.39474 35254 ft 430 kts 338°
2026-05-06 12:37 27.03315 -80.40604 35656 ft 429 kts 338°
2026-05-06 12:37 27.06126 -80.41735 35999 ft 430 kts 337°
2026-05-06 12:37 27.08947 -80.42875 36292 ft 431 kts 337°
2026-05-06 12:37 27.11758 -80.44059 36564 ft 432 kts 336°
2026-05-06 12:38 27.14564 -80.45298 36779 ft 434 kts 335°
2026-05-06 12:38 27.17371 -80.46555 36954 ft 433 kts 335°
2026-05-06 12:38 27.22873 -80.49009 37048 ft 418 kts 335°
2026-05-06 12:39 27.28315 -80.51424 37099 ft 425 kts 335°
2026-05-06 12:39 27.33862 -80.53879 37099 ft 427 kts 335°
2026-05-06 12:40 27.39401 -80.56274 37096 ft 428 kts 336°
2026-05-06 12:40 27.44998 -80.58483 37100 ft 427 kts 337°
2026-05-06 12:41 27.50629 -80.60679 37097 ft 426 kts 337°
2026-05-06 12:41 27.56200 -80.62876 37097 ft 425 kts 337°
2026-05-06 12:42 27.61766 -80.65089 37098 ft 424 kts 336°
2026-05-06 12:42 27.67334 -80.67310 37097 ft 423 kts 336°
2026-05-06 12:43 27.72901 -80.69534 37099 ft 423 kts 336°
2026-05-06 12:43 27.78417 -80.71739 37097 ft 423 kts 336°
2026-05-06 12:44 27.83969 -80.73961 37098 ft 422 kts 336°
2026-05-06 12:44 27.89528 -80.76188 37099 ft 423 kts 336°
2026-05-06 12:45 27.94923 -80.78351 37102 ft 423 kts 336°
2026-05-06 12:46 28.03252 -80.81695 37102 ft 423 kts 336°
2026-05-06 12:46 28.08771 -80.83915 37102 ft 423 kts 336°
2026-05-06 12:47 28.14323 -80.86149 37101 ft 423 kts 336°
2026-05-06 12:47 28.19855 -80.88379 37099 ft 423 kts 336°
2026-05-06 12:48 28.24509 -80.90256 37083 ft 423 kts 336°
2026-05-06 12:48 28.30021 -80.92482 37102 ft 423 kts 336°
2026-05-06 12:49 28.35573 -80.94726 37099 ft 423 kts 336°
2026-05-06 12:49 28.41095 -80.96960 37106 ft 423 kts 335°
2026-05-06 12:50 28.46679 -80.99223 37106 ft 423 kts 335°
2026-05-06 12:50 28.52204 -81.01464 37147 ft 426 kts 335°
2026-05-06 12:50 28.55009 -81.02605 37396 ft 429 kts 335°
2026-05-06 12:51 28.57826 -81.03749 37807 ft 428 kts 335°
2026-05-06 12:51 28.60632 -81.04888 38185 ft 428 kts 335°
2026-05-06 12:51 28.63453 -81.06035 38493 ft 429 kts 335°
2026-05-06 12:51 28.66234 -81.07166 38767 ft 430 kts 335°
2026-05-06 12:52 28.69059 -81.08316 38942 ft 432 kts 335°
2026-05-06 12:52 28.74729 -81.10626 39055 ft 428 kts 335°
2026-05-06 12:53 28.80322 -81.12903 39094 ft 423 kts 335°
2026-05-06 12:53 28.85830 -81.15154 39100 ft 421 kts 334°
2026-05-06 12:54 28.91324 -81.17401 39099 ft 420 kts 334°
2026-05-06 12:54 28.96834 -81.19658 39118 ft 421 kts 334°
2026-05-06 12:55 29.02351 -81.21919 39125 ft 421 kts 334°
2026-05-06 12:55 29.07861 -81.24180 39126 ft 422 kts 334°
2026-05-06 12:56 29.13408 -81.26458 39117 ft 423 kts 334°
2026-05-06 12:56 29.18929 -81.28728 39119 ft 423 kts 334°
2026-05-06 12:57 29.24477 -81.31012 39116 ft 423 kts 334°
2026-05-06 12:57 29.30257 -81.32633 39104 ft 436 kts 349°
2026-05-06 12:58 29.36338 -81.32912 39111 ft 437 kts 350°
2026-05-06 12:58 29.42396 -81.33195 39108 ft 437 kts 349°
2026-05-06 12:59 29.48478 -81.33529 39106 ft 437 kts 349°
2026-05-06 12:59 29.54537 -81.33886 39106 ft 437 kts 349°
2026-05-06 13:00 29.60629 -81.34249 39105 ft 437 kts 349°
2026-05-06 13:00 29.66723 -81.34611 39104 ft 437 kts 348°
2026-05-06 13:01 29.72776 -81.34971 39111 ft 436 kts 348°
2026-05-06 13:01 29.78849 -81.35332 39114 ft 436 kts 348°
2026-05-06 13:02 29.84897 -81.35691 39113 ft 436 kts 348°
2026-05-06 13:02 29.90966 -81.36053 39111 ft 435 kts 348°
2026-05-06 13:03 29.96989 -81.36412 39121 ft 435 kts 348°
2026-05-06 13:03 30.03050 -81.36774 39123 ft 435 kts 348°
2026-05-06 13:04 30.09113 -81.37137 39123 ft 435 kts 348°
2026-05-06 13:04 30.15133 -81.37497 39118 ft 435 kts 348°
2026-05-06 13:05 30.21204 -81.37852 39110 ft 435 kts 348°
2026-05-06 13:05 30.27207 -81.38202 39115 ft 435 kts 348°
2026-05-06 13:06 30.33266 -81.38557 39122 ft 434 kts 348°
2026-05-06 13:06 30.39326 -81.38913 39109 ft 434 kts 348°
2026-05-06 13:07 30.45333 -81.39266 39114 ft 433 kts 348°
2026-05-06 13:07 30.51334 -81.39601 39123 ft 434 kts 348°
2026-05-06 13:08 30.57380 -81.39922 39125 ft 433 kts 348°
2026-05-06 13:08 30.63416 -81.40244 39125 ft 433 kts 347°
2026-05-06 13:09 30.69415 -81.40567 39124 ft 433 kts 347°
2026-05-06 13:09 30.75430 -81.40892 39117 ft 432 kts 347°
2026-05-06 13:10 30.81454 -81.41218 39112 ft 432 kts 347°
2026-05-06 13:10 30.87429 -81.41542 39106 ft 432 kts 347°
2026-05-06 13:11 30.93451 -81.41869 39096 ft 432 kts 347°
2026-05-06 13:11 30.99426 -81.42194 39099 ft 431 kts 347°
2026-05-06 13:12 31.05436 -81.42521 39096 ft 431 kts 347°
2026-05-06 13:12 31.11441 -81.42849 39095 ft 431 kts 347°
2026-05-06 13:13 31.17412 -81.43174 39093 ft 431 kts 347°
2026-05-06 13:13 31.23478 -81.43153 39113 ft 443 kts 355°
2026-05-06 13:14 31.29604 -81.41854 39119 ft 457 kts
2026-05-06 13:14 31.35716 -81.39473 39115 ft 464 kts
2026-05-06 13:15 31.41753 -81.36929 39107 ft 464 kts
2026-05-06 13:15 31.47844 -81.34385 39105 ft 463 kts
2026-05-06 13:16 31.53926 -81.31884 39098 ft 462 kts
2026-05-06 13:16 31.59978 -81.29408 39093 ft 462 kts
2026-05-06 13:17 31.66067 -81.26915 39087 ft 462 kts
2026-05-06 13:17 31.72145 -81.24421 39079 ft 462 kts
2026-05-06 13:18 31.78181 -81.21940 39074 ft 462 kts
2026-05-06 13:18 31.84270 -81.19433 39071 ft 462 kts
2026-05-06 13:19 31.90351 -81.16926 39067 ft 462 kts
2026-05-06 13:19 31.96404 -81.14427 39067 ft 462 kts
2026-05-06 13:20 32.02451 -81.11926 39068 ft 462 kts
2026-05-06 13:20 32.08532 -81.09409 39069 ft 462 kts
2026-05-06 13:21 32.14574 -81.06904 39092 ft 462 kts
2026-05-06 13:21 32.20648 -81.04382 39092 ft 461 kts
2026-05-06 13:22 32.26689 -81.01871 39087 ft 461 kts
2026-05-06 13:22 32.32738 -80.99352 39089 ft 461 kts
2026-05-06 13:23 32.38801 -80.96824 39091 ft 461 kts
2026-05-06 13:23 32.44824 -80.94309 39094 ft 460 kts
2026-05-06 13:24 32.50839 -80.91794 39091 ft 460 kts
2026-05-06 13:24 32.56890 -80.89261 39095 ft 460 kts
2026-05-06 13:25 32.62938 -80.86724 39089 ft 459 kts
2026-05-06 13:25 32.68934 -80.84206 39093 ft 459 kts
2026-05-06 13:26 32.74915 -80.81323 39103 ft 471 kts 15°
2026-05-06 13:26 32.80680 -80.77528 39113 ft 477 kts 18°
2026-05-06 13:27 32.86447 -80.73587 39114 ft 476 kts 18°
2026-05-06 13:27 32.92212 -80.69761 39104 ft 475 kts 17°
2026-05-06 13:28 32.97037 -80.66615 39034 ft 472 kts 17°
2026-05-06 13:28 32.99917 -80.64742 38729 ft 473 kts 17°
2026-05-06 13:28 33.03766 -80.62244 38141 ft 475 kts 18°
2026-05-06 13:28 33.05703 -80.60987 37826 ft 477 kts 18°
2026-05-06 13:29 33.08622 -80.59088 37361 ft 479 kts 18°
2026-05-06 13:29 33.12523 -80.56543 36767 ft 481 kts 19°
2026-05-06 13:29 33.14508 -80.55244 36518 ft 481 kts 19°
2026-05-06 13:29 33.17449 -80.53316 36221 ft 479 kts 19°
2026-05-06 13:30 33.20336 -80.51423 35835 ft 480 kts 19°
2026-05-06 13:30 33.23266 -80.49503 35354 ft 480 kts 20°
2026-05-06 13:30 33.26192 -80.47582 34896 ft 476 kts 20°
2026-05-06 13:30 33.29077 -80.45686 34419 ft 472 kts 20°
2026-05-06 13:31 33.31948 -80.43798 33950 ft 467 kts 20°
2026-05-06 13:31 33.34753 -80.41952 33432 ft 462 kts 21°
2026-05-06 13:31 33.37562 -80.40105 32920 ft 458 kts 21°
2026-05-06 13:31 33.40340 -80.38277 32421 ft 453 kts 21°
2026-05-06 13:32 33.43100 -80.36460 31923 ft 450 kts 21°
2026-05-06 13:32 33.45804 -80.34679 31454 ft 446 kts 21°
2026-05-06 13:32 33.48515 -80.32893 30988 ft 442 kts 22°
2026-05-06 13:32 33.51195 -80.31123 30630 ft 436 kts 22°
2026-05-06 13:33 33.53841 -80.29376 30274 ft 431 kts 22°
2026-05-06 13:33 33.56472 -80.27639 29895 ft 431 kts 22°
2026-05-06 13:33 33.59112 -80.25896 29504 ft 433 kts 22°
2026-05-06 13:33 33.61756 -80.24144 29105 ft 435 kts 23°
2026-05-06 13:34 33.64380 -80.22401 28586 ft 436 kts 23°
2026-05-06 13:34 33.67037 -80.20633 28068 ft 435 kts 23°
2026-05-06 13:34 33.69675 -80.18877 27578 ft 432 kts 23°
2026-05-06 13:34 33.72298 -80.17130 27060 ft 428 kts 23°
2026-05-06 13:35 33.74865 -80.15421 26572 ft 424 kts 24°
2026-05-06 13:35 33.77455 -80.13696 26085 ft 420 kts 24°
2026-05-06 13:35 33.79999 -80.12000 25677 ft 416 kts 24°
2026-05-06 13:35 33.82486 -80.10341 25302 ft 411 kts 24°
2026-05-06 13:36 33.84978 -80.08678 24924 ft 407 kts 24°
2026-05-06 13:36 33.87444 -80.07030 24567 ft 404 kts 24°
2026-05-06 13:36 33.89921 -80.05378 24209 ft 407 kts 25°
2026-05-06 13:36 33.92391 -80.03729 23873 ft 413 kts 25°
2026-05-06 13:37 33.94914 -80.02042 23567 ft 414 kts 25°
2026-05-06 13:37 33.97443 -80.00427 23288 ft 406 kts 18°
2026-05-06 13:37 34.00164 -79.99712 23128 ft 394 kts 357°
2026-05-06 13:37 34.02876 -80.00015 23081 ft 388 kts 343°
2026-05-06 13:38 34.05367 -80.01097 23072 ft 384 kts 331°
2026-05-06 13:38 34.07772 -80.02509 23074 ft 385 kts 330°
2026-05-06 13:38 34.10170 -80.03973 23069 ft 386 kts 329°
2026-05-06 13:38 34.12573 -80.05444 23067 ft 387 kts 330°
2026-05-06 13:39 34.14985 -80.06905 23067 ft 387 kts 330°
2026-05-06 13:39 34.17375 -80.08339 23066 ft 387 kts 330°
2026-05-06 13:39 34.19792 -80.09778 23067 ft 387 kts 330°
2026-05-06 13:39 34.22206 -80.11208 23073 ft 386 kts 330°
2026-05-06 13:40 34.24631 -80.12642 22895 ft 387 kts 330°
2026-05-06 13:40 34.27051 -80.14073 22634 ft 385 kts 330°
2026-05-06 13:40 34.29454 -80.15494 22370 ft 381 kts 330°
2026-05-06 13:40 34.31801 -80.16883 22119 ft 378 kts 330°
2026-05-06 13:41 34.34149 -80.18275 21866 ft 375 kts 330°
2026-05-06 13:41 34.36479 -80.19658 21609 ft 370 kts 330°
2026-05-06 13:41 34.38777 -80.21021 21344 ft 363 kts 330°
2026-05-06 13:41 34.41037 -80.22362 21101 ft 358 kts 330°
2026-05-06 13:42 34.43268 -80.23688 20853 ft 355 kts 330°
2026-05-06 13:42 34.45460 -80.24991 20613 ft 353 kts 330°
2026-05-06 13:42 34.47658 -80.26299 20374 ft 351 kts 330°
2026-05-06 13:42 34.49861 -80.27611 20139 ft 349 kts 330°
2026-05-06 13:43 34.52043 -80.28912 19897 ft 348 kts 329°
2026-05-06 13:43 34.54215 -80.30207 19658 ft 347 kts 329°
2026-05-06 13:43 34.56344 -80.31477 19428 ft 346 kts 329°
2026-05-06 13:43 34.58511 -80.32770 19203 ft 345 kts 329°
2026-05-06 13:44 34.60642 -80.34079 19126 ft 341 kts 326°
2026-05-06 13:44 34.62581 -80.35731 19071 ft 339 kts 318°
2026-05-06 13:44 34.64408 -80.37575 18906 ft 344 kts 316°
2026-05-06 13:44 34.66228 -80.39428 18623 ft 345 kts 317°
2026-05-06 13:45 34.68089 -80.41265 18332 ft 343 kts 317°
2026-05-06 13:45 34.71793 -80.44846 17645 ft 336 kts 317°
2026-05-06 13:45 34.73602 -80.46617 17310 ft 331 kts 317°
2026-05-06 13:46 34.75336 -80.48322 16956 ft 315 kts 317°
2026-05-06 13:46 34.77006 -80.49966 16595 ft 302 kts 316°
2026-05-06 13:46 34.78633 -80.51574 16297 ft 299 kts 316°
2026-05-06 13:46 34.80248 -80.53168 15979 ft 297 kts 316°
2026-05-06 13:47 34.81852 -80.54750 15664 ft 295 kts 316°
2026-05-06 13:47 34.83422 -80.56297 15354 ft 292 kts 315°
2026-05-06 13:47 34.85000 -80.57858 15052 ft 290 kts 315°
2026-05-06 13:47 34.86542 -80.59421 14737 ft 287 kts 314°
2026-05-06 13:48 34.88071 -80.60986 14432 ft 285 kts 314°
2026-05-06 13:48 34.89566 -80.62516 14140 ft 283 kts 314°
2026-05-06 13:48 34.91075 -80.64060 13836 ft 281 kts 314°
2026-05-06 13:48 34.92565 -80.65585 13574 ft 277 kts 314°
2026-05-06 13:49 34.94036 -80.67090 13316 ft 273 kts 314°
2026-05-06 13:49 34.95494 -80.68584 13057 ft 273 kts 314°
2026-05-06 13:49 34.96935 -80.70061 12799 ft 277 kts 314°
2026-05-06 13:49 34.98420 -80.71582 12507 ft 280 kts 314°
2026-05-06 13:50 34.99922 -80.73121 12224 ft 281 kts 314°
2026-05-06 13:50 35.01410 -80.74643 11926 ft 278 kts 314°
2026-05-06 13:50 35.02859 -80.76162 11644 ft 268 kts 313°
2026-05-06 13:50 35.04231 -80.77619 11376 ft 254 kts 313°
2026-05-06 13:51 35.05531 -80.79004 11114 ft 241 kts 312°
2026-05-06 13:51 35.06773 -80.80325 10851 ft 232 kts 313°
2026-05-06 13:51 35.08224 -80.81217 10574 ft 244 kts 343°
2026-05-06 13:51 35.09897 -80.81405 10397 ft 247 kts 346°
2026-05-06 13:52 35.11625 -80.81595 10165 ft 249 kts 346°
2026-05-06 13:52 35.13348 -80.81791 9926 ft 247 kts 346°
2026-05-06 13:52 35.15046 -80.81979 9671 ft 244 kts 346°
2026-05-06 13:52 35.16727 -80.82160 9395 ft 240 kts 346°
2026-05-06 13:53 35.18386 -80.82339 9138 ft 238 kts 346°
2026-05-06 13:53 35.20032 -80.82516 8883 ft 236 kts 346°
2026-05-06 13:53 35.21642 -80.82694 8631 ft 235 kts 346°
2026-05-06 13:53 35.23271 -80.82879 8380 ft 234 kts 346°
2026-05-06 13:54 35.24907 -80.83069 8096 ft 236 kts 346°
2026-05-06 13:54 35.26542 -80.83262 7817 ft 238 kts 346°
2026-05-06 13:54 35.28199 -80.83459 7539 ft 238 kts 346°
2026-05-06 13:54 35.29831 -80.83660 7255 ft 238 kts 346°
2026-05-06 13:55 35.31479 -80.83871 6982 ft 237 kts 346°
2026-05-06 13:55 35.33122 -80.84083 6706 ft 237 kts 346°
2026-05-06 13:55 35.34764 -80.84299 6420 ft 236 kts 346°
2026-05-06 13:55 35.36387 -80.84523 6202 ft 232 kts 346°
2026-05-06 13:56 35.37975 -80.84742 5908 ft 231 kts 346°
2026-05-06 13:56 35.39574 -80.84958 5611 ft 231 kts 346°
2026-05-06 13:56 35.41173 -80.85174 5311 ft 230 kts 346°
2026-05-06 13:56 35.42760 -80.85390 5012 ft 229 kts 346°
2026-05-06 13:57 35.44336 -80.85625 4755 ft 222 kts 339°
2026-05-06 13:57 35.45614 -80.86463 4463 ft 202 kts 303°
2026-05-06 13:57 35.46173 -80.87921 4230 ft 185 kts 273°
2026-05-06 13:57 35.46280 -80.89476 4103 ft 179 kts 268°
2026-05-06 13:58 35.46287 -80.90950 4020 ft 169 kts 255°
2026-05-06 13:58 35.45679 -80.92107 4015 ft 167 kts 218°
2026-05-06 13:58 35.44608 -80.92734 4016 ft 175 kts 208°
2026-05-06 13:58 35.43474 -80.93263 4020 ft 175 kts 207°
2026-05-06 13:59 35.42339 -80.93782 4015 ft 173 kts 207°
2026-05-06 13:59 35.41212 -80.94294 3995 ft 172 kts 207°
2026-05-06 13:59 35.40097 -80.94768 4003 ft 172 kts 199°
2026-05-06 13:59 35.38890 -80.94869 3925 ft 176 kts 191°
2026-05-06 14:00 35.37652 -80.94884 3684 ft 177 kts 188°
2026-05-06 14:00 35.36433 -80.94812 3453 ft 173 kts 186°
2026-05-06 14:00 35.35243 -80.94714 3237 ft 170 kts 186°
2026-05-06 14:00 35.34080 -80.94615 3009 ft 164 kts 186°
2026-05-06 14:01 35.32956 -80.94519 2826 ft 162 kts 186°
2026-05-06 14:01 35.31839 -80.94424 2593 ft 158 kts 186°
2026-05-06 14:01 35.30789 -80.94330 2369 ft 143 kts 187°
2026-05-06 14:01 35.29860 -80.94249 2218 ft 131 kts 187°
2026-05-06 14:02 35.28950 -80.94174 2051 ft 133 kts 185°
2026-05-06 14:02 35.28053 -80.94096 1871 ft 125 kts 186°
2026-05-06 14:02 35.27195 -80.94023 1695 ft 125 kts 184°
2026-05-06 14:02 35.26309 -80.93969 1535 ft 129 kts 181°
2026-05-06 14:03 35.25395 -80.93868 1366 ft 135 kts 176°
2026-05-06 14:03 35.24467 -80.93744 1181 ft 131 kts 179°
2026-05-06 14:03 35.23547 -80.93696 998 ft 133 kts 180°
2026-05-06 14:03 35.22647 -80.93620 825 ft 130 kts 180°
2026-05-06 14:04 35.21765 -80.93559 740 ft 117 kts 175°
2026-05-06 14:04 35.21107 -80.93500 740 ft 77 kts 176°
2026-05-06 14:04 35.20700 -80.93466 739 ft 43 kts 176°
2026-05-06 14:04 35.20505 -80.93521 739 ft 13 kts 225°
2026-05-06 14:05 35.20520 -80.93578 737 ft 7 kts 341°
2026-05-06 14:05 35.20577 -80.93589 738 ft 9 kts 354°
2026-05-06 14:05 35.20647 -80.93597 738 ft 11 kts 354°
2026-05-06 14:05 35.20727 -80.93605 738 ft 12 kts 356°
2026-05-06 14:06 35.20819 -80.93612 738 ft 15 kts 357°
2026-05-06 14:06 35.20925 -80.93620 738 ft 16 kts 355°
2026-05-06 14:06 35.21039 -80.93631 738 ft 17 kts 356°
2026-05-06 14:06 35.21163 -80.93641 738 ft 18 kts 356°
2026-05-06 14:07 35.21293 -80.93651 738 ft 19 kts 356°
2026-05-06 14:07 35.21430 -80.93664 738 ft 20 kts 356°
2026-05-06 14:07 35.21576 -80.93677 738 ft 21 kts 356°
2026-05-06 14:07 35.21726 -80.93690 739 ft 21 kts 356°
2026-05-06 14:08 35.21873 -80.93702 739 ft 21 kts 356°
2026-05-06 14:08 35.22019 -80.93714 738 ft 18 kts 356°
2026-05-06 14:08 35.22128 -80.93723 738 ft 13 kts 356°
2026-05-06 14:08 35.22185 -80.93764 738 ft 8 kts 286°
2026-05-06 14:09 35.22164 -80.93829 737 ft 9 kts 231°
2026-05-06 14:09 35.22127 -80.93881 737 ft 5 kts 228°
2026-05-06 14:09 35.22120 -80.93891 737 ft 0 kts 228°